PEGASUS DEB, 29033

Orbit data source: Space-Track

PEGASUS DEB, 29033 is space debris in LEO originally from a launch on Thu, 19 May 1994 UTC launched from the Air Force Western Test Range (AFWTR). Debris objects in space refer to the collection of defunct objects orbiting the Earth. Examples of debris include non-operational satellites, rocket bodies, and fragments generated from explosions, collisions, or faulty payload assembly.

Loading next visibility...
Identifier
29033, 1994-029AEQ
Orbit
LEO
Country
Flag of USUS
Related business
Manufacturer
Unknown
Mission
Spacecraft
Bus & Motor
Unknown
Mass
Unknown
Launch date (UTC)
1994-05-19 (32 years ago)
Launch vehicle
Unknown
Launch site
Air Force Western Test Range (AFWTR)
Object type
Payload
Rocket body
Debris
Shape & HBR
Unknown shape, 0.1 m
Radar Cross Section
Small (<0.1 m²)

Expand to show TLE details & history
Last TLE update: 1 day ago

TLE from 1 day ago
0 PEGASUS DEB
1 29033U 94029AEQ 26065.91229352  .00026403  00000-0  35055-2 0  9998
2 29033  81.9590  49.4626 0162589 358.8896   1.1924 14.70811742214076
Epoch: 2026-03-06T21:53Z
TLE epoch observation values (Epoch: 2026-03-06T21:53:42.160Z)
Latitude
0.00004°
Longitude
-83.60455°
Altitude
547.077 km
Speed
7.65 km/s
True Right ascension
03h 17m 51s
True Declination
0° 00' 00"
Sunlit
Object was in daylight at epoch
Visualization orbit readout
Latitude
Unknown
Longitude
Unknown
Altitude
Unknown
Speed
Unknown
Apparent Right ascension
Unknown
Apparent Declination
Unknown
Sunlit
N/A
Visualization observer readout
Local Sidereal Time
04:46:06
Azimuth
Unknown
Elevation
Unknown
Doppler factor
Unknown
Orbital elements
Apogee altitude
769.896 km
Perigee altitude
541.176 km
Semi-major axis
7,033.673 km
Eccentricity
0.01626
Inclination
81.959°
RAAN
49.4626°
Arg. of periapsis
358.8896°
True anomaly
1.23197°
Mean anomaly
1.1924°
Eccentric anomaly
1.21211°
Mean motion
3.67934 °/min
Orbital period
97.84 mins
BSTAR
0.0035055
Loading maneuver chart data...
Computing Atmospheric mass density...

Documentation

Showing up to 5 results
|